Location: Lussas
(44.6119°N, 4.4726°E)
Time: 20:49:04
(UTC+00:00)

Meteor 1-26 Rocket - Pass Details

Date: 26 November 2020
Orbit: 807 x 928 km, 81.3° (Epoch: 27 January)

Event Time Altitude Azimuth Distance (km) Brightness Sun altitude
Rises 05:06:33 0° 347° (NNW) 3,531 7.2 -18.6°
Reaches altitude 10° 05:09:04 10° 346° (NNW) 2,570 6.5 -18.1°
Maximum altitude 05:14:53 72° 263° (W) 915 4.2 -17.1°
Drops below altitude 10° 05:20:28 10° 180° (S) 2,469 6.8 -16.1°
Sets 05:22:50 0° 178° (S) 3,383 7.6 -15.7°
